Simultaneous Nadir Overpasses (SNOs) Predictions

Prediction of SNOs between FY3D and AQUA Satellite Orbit:

Table of predicted SNOs for the next 14.0 days since TLE Epoch: 9/5/2020
Index Date (FY3D) Time (FY3D) Lat,Lon (FY3D) SZA (FY3D ) Date (AQUA) Time (AQUA) Lat,Lon (AQUA) SZA (AQUA ) Distance(km) Time Diff (sec)
1 09/06/2020 20:40:15 52.99, 84.54 114.10 09/06/2020 20:41:28 52.98, 84.52 113.99 0.89 73
2 09/06/2020 21:28:43 -60.82,-103.38 73.40 09/06/2020 21:28:43 -60.83,-103.37 73.40 0.77 0
3 09/06/2020 22:16:31 70.39, 74.21 97.04 09/06/2020 22:15:18 70.41, 73.87 97.19 12.84 73
4 09/09/2020 13:45:09 -60.64, 12.40 72.35 09/09/2020 13:45:15 -60.64, 12.38 72.35 1.00 6
5 09/09/2020 14:34:21 65.69,-175.88 102.72 09/09/2020 14:33:11 65.69,-175.85 102.80 1.32 70
6 09/12/2020 06:01:58 -59.17, 127.27 70.05 09/12/2020 06:02:09 -59.17, 127.29 70.08 1.13 11
7 09/12/2020 06:50:43 65.73, -59.93 103.59 09/12/2020 06:49:39 65.73, -59.94 103.68 0.78 64
8 09/14/2020 22:18:18 -59.26,-116.75 69.27 09/14/2020 22:18:35 -59.26,-116.77 69.28 1.32 17
9 09/14/2020 23:07:24 64.66, 54.93 105.54 09/14/2020 23:06:25 64.67, 54.95 105.61 1.55 59
10 09/17/2020 14:35:04 -57.95, -1.69 67.14 09/17/2020 14:35:26 -57.95, -1.69 67.17 0.06 22
